#timestamp,LO_Frequency,Hit,StdDev 
1676502015.3,286047002.3,N
1676502035.1,286047000.1,N
1676502055.9,286047004.2,N
1676502075.7,286046999.8,N
1676502095.5,286046999.7,N
1676502115.4,286047001.8,N
1676502135.2,286047001.7,N
1676502155.1,286047001.8,N
1676502156.0,286047001.8,N
1676502175.8,286047005.6,Y
1676502195.6,286047004.1,P
1676502215.5,286047004.9,P
1676502235.3,286047003.7,N
1676502255.2,286047002.8,N
1676502275.9,286046998.4,N
1676502295.7,286046996.6,N
1676502315.6,286046999.3,N
1676502335.4,286046998.1,N
1676502355.2,286047002.5,N
1676502375.1,286047003.2,N
1676502376.0,286047003.2,N
1676502395.8,286047005.6,N
1676502415.7,286047003.6,N
1676502435.5,286047002.9,N
1676502455.3,286047001.9,N
1676502475.2,286047002.8,N
1676502495.9,286046999.8,N
1676502515.7,286047002.7,N
1676502535.6,286046999.7,N
1676502555.4,286047002.0,N
1676502575.3,286047000.2,N
1676502595.1,286047002.7,N
1676502596.0,286047002.7,N
1676502615.8,286047000.2,N
1676502635.7,286046998.5,N
1676502655.5,286047000.9,N
1676502675.3,286047001.2,N
1676502695.2,286046999.8,N
1676502715.0,286047002.0,N
1676502715.9,286047002.0,N
1676502735.8,286047002.6,N
1676502755.6,286047002.1,N
1676502775.4,286046999.8,N
1676502795.3,286047000.2,N
1676502815.1,286046999.7,N
1676502835.9,286047000.9,N
1676502855.7,286047001.4,N
1676502875.5,286046999.9,N
1676502895.4,286047000.3,N
1676502915.2,286046999.7,N
1676502935.0,286047000.0,N
1676502935.9,286047000.0,N
1676502955.8,286047000.5,N
1676502975.6,286047000.6,N
1676502995.5,286047000.9,N
1676503015.3,286047001.4,N
1676503035.1,286047001.8,N
1676503055.9,286047003.9,Y
1676503075.7,286046999.7,P
1676503095.5,286047002.6,P
1676503115.4,286047002.7,N
1676503135.2,286047001.2,N
1676503155.1,286047000.2,N
1676503156.0,286047000.2,N
1676503175.8,286047000.5,N
1676503195.6,286047000.8,N
1676503215.5,286047001.2,N
1676503235.3,286046999.5,N
1676503255.1,286046998.5,N
1676503275.9,286046998.3,N
1676503295.7,286046999.4,N
1676503315.6,286047001.2,N
1676503335.4,286047002.2,N
1676503355.2,286046999.9,N
1676503375.1,286046998.7,N
1676503376.0,286046998.7,N
1676503395.8,286046998.6,N
1676503415.7,286047000.0,N
1676503435.5,286046998.7,N
1676503455.3,286047001.1,N
1676503475.2,286046999.8,N
1676503495.0,286046999.8,N
1676503495.9,286046999.8,N
1676503515.8,286047000.4,N
1676503535.6,286047000.9,N
1676503555.4,286047003.9,Y
1676503575.3,286047002.2,P
1676503595.1,286047002.1,N
1676503615.8,286047002.1,N
1676503635.7,286047000.9,N
1676503655.5,286046996.9,Y
1676503675.4,286046993.4,P
1676503695.2,286046994.9,N
1676503715.0,286046995.4,N
1676503715.9,286046995.4,N
1676503735.8,286046997.4,N
1676503755.6,286046997.5,N
1676503775.4,286047001.2,N
1676503795.3,286047001.0,N
1676503815.1,286047002.2,N
1676503835.9,286047004.3,N
1676503855.7,286047002.4,N
1676503875.5,286046998.1,N
1676503895.4,286046995.6,N
1676503915.2,286046996.6,N
1676503935.0,286046996.8,N
1676503935.9,286046996.8,N
1676503955.8,286046995.0,N
1676503975.6,286046995.4,N
1676503995.5,286046996.9,N
1676504015.3,286046998.2,N
1676504035.1,286046998.5,N
1676504055.9,286046999.4,N
1676504075.7,286046997.8,N
1676504095.5,286046993.5,N
1676504115.4,286046995.6,N
1676504135.2,286046997.3,N
1676504155.1,286046997.7,N
1676504156.0,286046997.7,N
1676504175.8,286046997.7,N
1676504195.6,286046998.4,N
1676504215.5,286046998.4,N
1676504235.3,286046997.1,N
1676504255.1,286046997.6,N
1676504275.9,286046995.3,N
1676504295.7,286046997.2,N
1676504315.6,286046997.1,N
1676504335.4,286046999.2,N
1676504355.3,286046998.8,N
1676504375.1,286047000.3,N
1676504395.8,286046999.4,N
1676504415.7,286046996.5,N
1676504435.5,286046997.9,N
1676504455.4,286046996.4,N
1676504475.2,286046995.0,Y
1676504495.0,286046999.1,P
1676504495.9,286046999.1,N
1676504515.8,286047000.9,N
1676504535.6,286047000.3,N
1676504555.5,286046998.4,N
1676504575.3,286046998.2,N
1676504595.2,286047001.1,N
1676504615.0,286046998.4,N
1676504615.9,286046998.4,N
1676504635.7,286047000.5,N
1676504655.6,286047002.0,N
1676504675.4,286047000.5,N
1676504695.3,286047000.6,N
1676504715.1,286046998.6,N
1676504716.0,286046998.6,N
1676504735.8,286047001.0,N
1676504755.7,286047000.6,N
1676504775.5,286046999.2,N
1676504795.4,286046998.2,N
1676504815.2,286047001.2,N
1676504835.0,286046998.8,N
1676504835.9,286046998.8,N
1676504855.8,286046998.3,N
1676504875.6,286047000.5,N
1676504895.5,286047000.3,N
1676504915.3,286047001.1,N
1676504935.1,286047000.2,N
1676504955.9,286046999.7,N
1676504975.7,286047002.1,N
1676504995.5,286047003.6,N
1676505015.4,286047003.7,N
1676505035.2,286046999.7,N
1676505055.1,286047000.8,N
1676505056.0,286047000.8,N
1676505075.8,286046998.8,N
1676505095.6,286046998.7,N
1676505115.5,286046996.9,N
1676505135.3,286046998.2,N
1676505155.2,286047002.0,N
1676505175.9,286047002.1,N
1676505195.7,286047000.3,N
1676505215.6,286047000.3,N
1676505235.4,286047000.6,N
1676505255.3,286047000.0,N
1676505275.1,286047000.6,N
1676505276.0,286047000.6,N
1676505295.8,286046998.1,N
1676505315.7,286046998.2,N
1676505335.5,286046998.1,N
1676505355.3,286047001.1,N
1676505375.2,286047000.1,N
1676505395.0,286047002.1,N
1676505395.9,286047002.1,N
1676505415.8,286047002.8,N
1676505435.6,286047000.7,N
1676505455.4,286046998.4,N
1676505475.3,286046998.3,N
1676505495.1,286047000.3,N
1676505515.9,286046998.6,N
1676505535.7,286046999.3,N
1676505555.5,286047002.3,N
1676505575.4,286046998.4,N
1676505595.2,286047001.1,N
